www.pogodaiklimat.ru
ПОГОДА в Лебе

Архив погоды в Лебе (Польша)

Время
(UTC), дата
16 21.05
17 21.05
18 21.05
19 21.05
20 21.05
21 21.05
22 21.05
23 21.05
00 22.05
01 22.05
02 22.05
03 22.05
04 22.05
05 22.05
06 22.05
07 22.05
08 22.05
09 22.05
10 22.05
11 22.05
12 22.05
13 22.05
14 22.05
15 22.05
16 22.05
17 22.05
18 22.05
19 22.05
20 22.05
21 22.05
22 22.05
23 22.05
00 23.05
01 23.05
02 23.05
03 23.05
04 23.05
05 23.05
06 23.05
07 23.05
08 23.05
09 23.05
10 23.05
11 23.05
12 23.05
13 23.05
14 23.05
15 23.05
16 23.05
17 23.05
18 23.05
19 23.05
20 23.05
21 23.05
22 23.05
23 23.05
00 24.05
01 24.05
02 24.05
03 24.05
04 24.05
05 24.05
06 24.05
07 24.05
08 24.05
09 24.05
10 24.05
11 24.05
12 24.05
13 24.05
14 24.05
15 24.05
16 24.05
17 24.05
18 24.05
19 24.05
20 24.05
21 24.05
22 24.05
23 24.05
00 25.05
01 25.05
02 25.05
03 25.05
04 25.05
05 25.05
06 25.05
07 25.05
08 25.05
09 25.05
10 25.05
11 25.05
12 25.05
13 25.05
14 25.05
15 25.05
16 25.05
17 25.05
18 25.05
19 25.05
20 25.05
21 25.05
22 25.05
23 25.05
00 26.05
01 26.05
02 26.05
03 26.05
04 26.05
05 26.05
06 26.05
07 26.05
08 26.05
09 26.05
10 26.05
11 26.05
12 26.05
13 26.05
14 26.05
15 26.05
16 26.05
17 26.05
18 26.05
19 26.05
20 26.05
21 26.05
22 26.05
23 26.05
00 27.05
01 27.05
02 27.05
03 27.05
04 27.05
05 27.05
06 27.05
07 27.05
08 27.05
09 27.05
10 27.05
11 27.05
12 27.05
13 27.05
14 27.05
15 27.05
16 27.05
17 27.05
18 27.05
19 27.05
20 27.05
21 27.05
22 27.05
23 27.05
00 28.05
01 28.05
02 28.05
03 28.05
04 28.05
05 28.05
06 28.05
07 28.05
08 28.05
09 28.05
10 28.05
11 28.05
12 28.05
13 28.05
14 28.05
15 28.05
16 28.05
Ветер
(напр.,м/с)
Видим. Явления Облачность Т
(С)
Тd
(С)
f
(%)
Тe
(С)
Тes
(С)
Комфортность P
(гПа)
Po
(гПа)
Тmin
(С)
Tmax
(С)
R
(мм)
R24
(мм)
S
(см)
СВ 6 30 км 1/1 1000 м
[Cb calv Ci fib]
+15.4 +12.9 85 +14 +15 1014.8 1014.4
СВ 6 30 км 1/1 1000 м
[Cu med, cong Ci sp]
+15.5 +13.0 85 +14 +15 1014.5 1014.1
СВ 5 30 км 3/1 1000 м
[Cu med, cong Ci sp]
+15.0 +13.0 88 +14 +14 1014.5 1014.1 +14.9 +17.9
СВ 5 30 км 3/0
[Ci sp]
+14.1 +12.5 90 +12 +12 1014.8 1014.4
СВ 4 27 км 4/0
[Ci sp]
+13.6 +12.5 93 +12 +12 1014.7 1014.3
СВ 5 25 км 3/0
[Ci sp]
+13.1 +12.3 95 +11 +11 1014.4 1014.0
СВ 4 22 км 1/0
[Ci sp]
+13.2 +12.6 96 +11 +11 1014.3 1013.9
СВ 4 20 км 3/0
[Ci sp]
+12.6 +11.7 94 +11 +11 1014.2 1013.8
СВ 4 27 км 3/0
[Ci sp]
+14.5 +14.0 97 +13 +13 1013.9 1013.5
В 4 35 км 1/0
[Ci fib]
+15.7 +13.4 86 +15 +15 1013.5 1013.1
СВ 4 28 км 1/0
[Ci sp]
+14.8 +13.7 93 +14 +14 1013.4 1013.0
В 5 30 км 1/0
[Ci fib]
+14.9 +13.9 94 +13 +13 1013.3 1012.9
В 5 35 км 1/0
[Ci fib]
+16.3 +14.3 88 +15 +16 1013.4 1013.0
В 3 35 км 3/0
[Ci sp]
+18.0 +14.5 80 +18 +20 1013.5 1013.1
В 5 35 км ясно +19.5 +14.9 75 +21 +24 комфорт 1013.6 1013.2 +12.4 +19.5
СВ 4 35 км ясно +19.3 +13.9 71 +21 +26 комфорт 1013.6 1013.2
СВ 4 35 км 1/0
[Ci sp]
+18.9 +13.5 71 +20 +27 1013.1 1012.7
СВ 4 35 км 3/1 1000 м
[Cu hum Ci sp]
+19.9 +14.3 70 +22 +30 комфорт 1013.1 1012.7
СВ 6 26 км 3/1 1000 м
[Cu hum Ci sp]
+18.8 +14.1 74 +19 +24 1012.9 1012.5
СВ 6 35 км 3/1 1000 м
[Cu hum Ci sp]
+19.3 +14.1 72 +20 +26 1012.7 1012.3
СВ 6 35 км 3/1 1000 м
[Cu hum Ac trans]
+19.2 +13.8 71 +20 +25 1012.6 1012.2
СВ 6 30 км 1/1 1000 м
[Cu hum]
+18.8 +14.1 74 +19 +24 1012.1 1011.7
СВ 6 35 км 1/1 1000 м
[Cu hum Ac trans]
+18.6 +13.5 72 +19 +22 1011.8 1011.4
СВ 7 35 км 1/1 1000 м
[Cu hum]
+17.0 +12.7 76 +16 +18 1011.5 1011.1
СВ 5 35 км ясно +17.9 +12.8 72 +18 +20 1011.1 1010.7
СВ 4 35 км ясно +17.6 +12.7 73 +17 +18 1011.0 1010.6
СВ 4 35 км 1/1 600 м
[Cb calv]
+16.6 +12.5 77 +16 +16 1011.0 1010.6 +16.5 +20.4
СВ 5 35 км 1/1 600 м
[Cb calv]
+16.0 +12.5 80 +15 +15 1011.3 1010.9
СВ 4 30 км 1/1 600 м
[Cu med, cong]
+16.8 +13.7 82 +16 +16 1011.5 1011.1
СВ 4 30 км 1/1 1000 м
[Cu med, cong]
+16.7 +13.6 82 +16 +16 1011.3 1010.9
Ю 3 35 км 3/1 1500 м
[Sc Ac trans]
+17.7 +14.0 79 +18 +18 1011.8 1011.4
СВ 3 35 км 1/0
[Ac trans]
+16.5 +13.8 84 +16 +16 1011.4 1011.0
СВ 4 27 км 1/1 1500 м
[Sc]
+15.1 +13.1 88 +14 +14 1011.1 1010.7
СВ 4 20 км 1/1 1500 м
[Sc]
+14.9 +13.3 90 +14 +14 1011.0 1010.6
В 2 26 км 3/3 1500 м
[Sc]
+14.7 +13.2 91 +14 +14 1011.1 1010.7
В 3 30 км 4/3 1000 м
[Sc Ac trans]
+15.1 +13.3 89 +14 +14 1011.2 1010.8
В 2 35 км 3/1 1000 м
[Sc Ac trans]
+17.5 +13.6 78 +18 +19 1011.4 1011.0
В 3 35 км 4/3 1000 м
[Sc Ac trans]
+19.5 +13.9 70 +21 +23 комфорт 1011.6 1011.2
ЮВ 5 35 км 4/3 1000 м
[Sc Ac trans]
+20.6 +14.7 69 +23 +25 комфорт 1012.2 1011.8 +13.5 +20.6
ЮВ 7 35 км 6/1 1000 м
[Sc Ac trans Ci sp]
+22.4 +14.3 60 +26 +27 жарко 1012.3 1011.9
ЮВ 6 35 км 8/3 1000 м
[Cu med, cong Ac trans Ci sp]
+22.7 +14.3 59 +26 +28 жарко 1012.5 1012.1
ЮВ 6 35 км 8/8 1000 м
[Sc]
+23.4 +13.3 53 +27 +28 душно 1012.7 1012.3
ЮВ 9 {10} 35 км 9/9 1000 м
[Cu med, cong]
+21.4 +12.8 58 +24 +24 комфорт 1013.5 1013.1
ЮВ 7 35 км 9/9 1500 м
[Cu med, cong]
+20.6 +13.1 62 +23 +23 комфорт 1013.5 1013.1
ЮВ 7 {11} 35 км 9/9 1000 м
[Cb calv]
+20.7 +13.6 64 +23 +23 комфорт 1013.5 1013.1
ЮВ 6 30 км слаб. ливневой дождь 9/9 600 м
[Cb calv]
+18.9 +15.2 79 +20 +20 1014.1 1013.7
В 4 25 км в посл. час ливневой дождь 9/9 200 м
[Cb calv]
+18.8 +18.0 95 +20 +21 1013.9 1013.5
ЮВ 4 25 км {ливн. дождь} 9/9 300 м
[Cu med, cong]
+19.4 +17.2 87 +21 +22 комфорт 1014.1 1013.7
ЮВ 4 28 км 9/9 300 м
[Cb calv]
+19.8 +17.2 85 +22 +23 комфорт 1014.2 1013.8
ЮВ 4 27 км 9/9 1000 м
[Cb calv]
+19.5 +16.7 84 +22 +22 комфорт 1014.6 1014.2
Ю 2 30 км {ливн. дождь} 9/9 600 м
[Cb calv]
+19.2 +16.6 85 +21 +21 комфорт 1015.1 1014.7 +17.6 +24.3 0.0
З 4 35 км в посл. час ливневой дождь 9/9 600 м
[Cb calv]
+15.8 +14.8 94 +15 +15 1016.0 1015.6
ЮЗ 5 35 км 9/9 200 м
[Sc]
+15.7 +14.9 95 +14 +14 1016.9 1016.5
ЮЗ 6 35 км {ливн. дождь} 10/10 200 м
[Sc]
+15.5 +14.5 94 +14 +14 1017.5 1017.1
ЮЗ 7 35 км 9/9 300 м
[Sc]
+14.9 +13.8 93 +13 +13 1017.9 1017.5
З 4 35 км 9/9 300 м
[Sc]
+15.0 +13.5 91 +14 +14 1018.5 1018.1
ЮЗ 3 35 км {ливн. дождь} 9/9 200 м
[Sc]
+14.8 +13.3 91 +14 +14 1019.2 1018.8 0.0
Ю 3 17 км 9/9 300 м
[Sc]
+12.8 +11.9 94 +11 +11 1019.5 1019.1
Ю 2 14 км 5/4 300 м
[Sc Ci sp]
+12.7 +12.2 97 +12 +12 1019.7 1019.3
Ю 1 7000 м дымка 5/3 300 м
[Sc Ci sp]
+12.3 +12.0 98 +12 +12 1019.9 1019.5
Ю 3 7000 м дымка 5/5 300 м
[Sc]
+12.7 +12.5 99 +11 +11 1020.3 1019.9
З 3 20 км 9/5 300 м
[Sc Ac trans]
+14.7 +14.5 99 +14 +14 1020.4 1020.0
З 3 35 км 9/5 2000 м
[Sc Ac trans]
+16.1 +13.9 87 +16 +17 1020.6 1020.2 +12.2 +19.2 0.0 0.0
СЗ 2 30 км 9/6 2000 м
[Sc Ac trans]
+15.6 +12.9 84 +15 +17 1021.0 1020.6
З 2 29 км 9/9 2000 м
[Sc]
+16.1 +12.6 80 +16 +17 1021.6 1021.2
СЗ 2 27 км 9/9 1500 м
[Sc]
+15.7 +12.6 82 +16 +17 1022.0 1021.6
С 1 24 км 8/5 1500 м
[Sc Ac trans]
+16.4 +13.1 81 +17 +23 1022.3 1021.9
С 2 35 км 8/1 1500 м
[Sc Ac trans]
+16.7 +12.6 77 +17 +24 1022.2 1021.8
СВ 3 35 км 4/1 1500 м
[Sc Ac trans]
+17.0 +12.7 76 +17 +26 1022.1 1021.7
СВ 2 35 км 4/1 1500 м
[Sc Ac trans]
+17.4 +12.9 75 +18 +27 1021.9 1021.5
СВ 3 30 км 4/1 1500 м
[Sc Ac trans]
+17.8 +12.9 73 +18 +24 1021.7 1021.3
СВ 3 35 км 3/1 1500 м
[Sc Ac trans Ci sp]
+17.1 +12.4 74 +17 +21 1021.5 1021.1
СВ 2 25 км 4/0
[Ci sp]
+16.7 +13.4 81 +17 +20 1020.8 1020.4
СВ 3 19 км 3/0
[Ci sp]
+15.3 +13.0 86 +15 +16 1021.0 1020.6
СВ 3 13 км 3/0
[Ci sp]
+14.5 +13.2 92 +14 +14 1020.8 1020.4 +14.5 +17.8
СВ 3 11 км 4/0
[Ac trans Ci sp]
+14.1 +13.3 95 +13 +13 1020.9 1020.5
СВ 4 9000 м дымка 4/0
[Ac trans]
+13.5 +12.9 96 +12 +12 1020.6 1020.2
В 5 9000 м дымка 4/0
[Ac trans]
+13.8 +13.3 97 +12 +12 1020.6 1020.2
С 4 9000 м дымка 3/0
[Ac trans]
+13.2 +12.7 97 +11 +11 1020.4 1020.0
СВ 3 9000 м дымка 6/0
[Ac trans]
+12.5 +12.3 99 +11 +11 1020.1 1019.7
СВ 5 1100 м дымка 6/0
[Ac trans]
+11.5 +11.3 99 +9 +9 1019.5 1019.1
В 5 1100 м дымка 6/0
[Ac trans]
+11.7 +11.5 99 +9 +9 1019.3 1018.9
В 4 5000 м дымка 10/10 50 м
[St]
+12.2 +12.0 99 +10 +10 1019.3 1018.9
ЮВ 1 3500 м дымка 10/10 50 м
[St]
+12.4 +12.2 99 +12 +12 1019.5 1019.1
штиль 0 3500 м дымка 10/10 50 м
[St]
+12.9 +12.7 99 +12 +12 1019.4 1019.0
ЮВ 1 5000 м дымка 9/9 100 м
[St]
+13.7 +13.5 99 +14 +14 1019.4 1019.0
СВ 2 17 км 1/0
[Ac trans]
+14.9 +14.7 99 +15 +19 1019.5 1019.1 +11.3 +15.9
СВ 3 800 м туман, небо видно 5/4 50 м
[St Ac trans]
+14.4 +13.9 97 +13 +17 1019.6 1019.2
СВ 3 30 км в посл. час туман 1/0
[Ac trans]
+15.7 +13.9 89 +15 +24 1019.7 1019.3
СВ 4 15 км {туман} 4/0
[Ac trans Ci sp]
+16.0 +14.4 90 +15 +22 1019.9 1019.5
СВ 4 18 км 4/0
[Ac trans Ci sp]
+18.4 +15.3 82 +19 +28 1019.6 1019.2
СВ 5 25 км 8/1 600 м
[Cu med, cong Ac trans Ci sp]
+18.8 +14.3 75 +19 +24 1019.4 1019.0
СВ 4 35 км {туман} 9/6 600 м
[Cu med, cong Ci sp]
+21.2 +15.5 70 +24 +28 комфорт 1019.0 1018.6
СВ 3 35 км 9/6 1000 м
[Cb calv Ci sp]
+24.3 +16.8 63 +28 +32 душно 1018.7 1018.3
В 5 35 км в посл. час ливневой дождь 5/3 1000 м
[Cb cap Ci sp]
+23.1 +16.9 68 +28 +31 душно 1018.7 1018.3
В 4 35 км {ливн. дождь} 3/1 1000 м
[Cu med, cong Ci sp]
+24.9 +16.1 58 +28 +32 жарко 1018.3 1017.9
Ю 4 35 км 3/1 1000 м
[Cu med, cong Ci sp]
+25.7 +14.2 49 +28 +30 жарко 1018.2 1017.8
СВ 3 35 км 1/1 1000 м
[Cb calv Ci sp]
+22.9 +15.2 62 +27 +28 душно 1018.3 1017.9
В 4 35 км {ливн. дождь} 4/3 1500 м
[Sc Ci sp]
+22.3 +16.1 68 +26 +27 жарко 1018.7 1018.3 +13.9 +26.5 0.1
В 3 30 км 6/3 1500 м
[Sc Ac und Ci sp]
+20.3 +15.5 74 +23 +23 комфорт 1019.2 1018.8
СВ 3 30 км 6/0
[Ac und Ci sp]
+18.8 +15.1 79 +20 +20 1019.4 1019.0
В 3 30 км 5/0
[Ci sp]
+18.1 +15.4 84 +18 +18 1019.4 1019.0
СВ 3 30 км зарница 3/0
[Ci sp]
+15.6 +13.3 86 +15 +15 1019.2 1018.8
В 5 25 км 5/0
[Ac und Ci sp]
+16.2 +15.2 94 +15 +15 1019.6 1019.2
В 4 35 км 8/0
[Ac und Ci sp]
+17.9 +13.6 76 +18 +18 1019.9 1019.5
В 4 35 км 9/0
[Ac trans Ci sp]
+18.2 +13.1 72 +18 +18 1019.3 1018.9
ЮВ 4 35 км 8/0
[Ac trans Ci sp]
+17.8 +12.7 72 +18 +18 1019.4 1019.0
Ю 2 35 км 9/0
[Ac trans Ci sp]
+16.7 +12.8 78 +17 +17 1019.2 1018.8
ЮВ 3 35 км 9/0
[Ac trans]
+16.8 +13.3 80 +17 +17 1019.6 1019.2
В 3 35 км 9/5 2000 м
[Sc Ac trans]
+17.0 +13.5 80 +17 +17 1020.0 1019.6
ЮВ 3 35 км слаб. ливневой дождь 9/9 600 м
[Cb calv]
+16.9 +14.5 86 +17 +17 1020.8 1020.4 +13.7 +22.4 0.0 0.1
ЮВ 4 35 км в посл. час ливневой дождь 9/5 600 м
[Cu med, cong Ac trans]
+18.3 +14.8 80 +19 +20 1020.8 1020.4
Ю 3 35 км 9/9 2000 м
[Sc]
+18.7 +14.6 77 +20 +21 1020.9 1020.5
Ю 2 35 км {ливн. дождь} 8/4 2000 м
[Sc Ac trans]
+20.2 +15.6 75 +23 +28 комфорт 1021.0 1020.6
С 3 35 км 9/3 1500 м
[Cu med, cong Ac trans Ci sp]
+18.1 +14.0 77 +18 +23 1021.3 1020.9
СВ 3 35 км 8/4 2000 м
[Cu med, cong Ac trans]
+17.6 +13.5 77 +18 +22 1021.4 1021.0
СВ 4 35 км {ливн. дождь} 6/3 2000 м
[Cu med, cong Ac trans Ci sp]
+20.4 +15.4 73 +23 +29 комфорт 1021.2 1020.8 0.0
СВ 4 35 км 4/1 2000 м
[Cu med, cong Ci sp]
+21.2 +15.7 71 +24 +32 комфорт 1020.8 1020.4
СВ 5 35 км 5/4 1500 м
[Cb calv Ci sp]
+22.1 +15.9 68 +26 +29 душно 1020.2 1019.8
СВ 6 30 км 4/3 1500 м
[Cu med, cong Ci sp]
+21.5 +15.6 69 +25 +27 комфорт 1019.6 1019.2
В 6 35 км 6/3 1500 м
[Cu med, cong Ci sp]
+24.1 +16.4 62 +28 +29 душно 1019.6 1019.2
В 6 35 км 8/4 1500 м
[Cb cap Ci sp]
+23.7 +16.0 62 +27 +27 жарко 1019.9 1019.5
В 4 35 км 8/4 1500 м
[Cb cap Ci sp]
+21.1 +15.4 70 +24 +24 комфорт 1019.8 1019.4 +16.4 +24.3 0.0
З 4 35 км в посл. час гроза 8/5 1500 м
[Cb cap Ci sp]
+19.4 +15.9 80 +21 +21 комфорт 1020.7 1020.3
СВ 1 35 км зарница 8/5 1500 м
[Cb cap Ci sp]
+18.1 +14.6 80 +19 +19 1021.0 1020.6
СВ 3 30 км {гроза} 8/5 1500 м
[Cb calv Ci sp]
+16.0 +13.8 87 +16 +16 1020.6 1020.2
ЮЗ 2 28 км 6/3 1000 м
[Cb calv Ci sp]
+16.3 +14.7 90 +16 +16 1020.9 1020.5
В 1 25 км зарница 9/3 1000 м
[Cb cap Cs]
+15.5 +14.5 94 +16 +16 1020.9 1020.5
В 2 35 км {гроза} 9/3 1000 м
[Cb calv Ac As]
+15.8 +14.7 93 +16 +16 1020.1 1019.7
Ю 1 35 км 9/3 1000 м
[Cu med, cong Ac As]
+16.3 +13.0 81 +17 +17 1020.2 1019.8
В 3 35 км 9/1 1000 м
[Sc Ac As]
+15.9 +13.0 83 +15 +15 1020.4 1020.0
ЮВ 2 35 км 8/3 1000 м
[Sc Ac trans]
+16.3 +11.9 75 +16 +16 1020.1 1019.7
ЮВ 1 35 км 9/1 1000 м
[Sc Ac As]
+15.8 +12.5 81 +16 +17 1020.2 1019.8
Ю 2 35 км 9/3 1500 м
[Cb calv Ac As]
+17.2 +13.3 78 +18 +18 1020.5 1020.1
Ю 3 35 км в посл. час ливневой дождь 9/9 1000 м
[Cb calv]
+18.6 +13.7 73 +19 +20 1020.3 1019.9 +15.0 +21.1 0.0 0.0
ЮВ 4 35 км 4/1 1000 м
[Sc Ac trans]
+22.1 +13.7 59 +25 +29 комфорт 1019.9 1019.5
Ю 4 35 км 4/3 1000 м
[Cb calv Ac trans]
+24.1 +11.8 46 +26 +30 жарко 1019.7 1019.3
Ю 4 35 км 3/0
[Ac trans Ci fib]
+25.9 +14.7 50 +28 +37 жарко 1019.4 1019.0
ЮВ 5 35 км 3/1 1000 м
[Cu hum Ac trans Ci fib]
+27.5 +11.1 36 +28 +35 жарко 1018.9 1018.5
Ю 6 35 км 3/1 1000 м
[Cu med, cong Ac trans]
+27.8 +10.5 34 +28 +33 жарко 1018.5 1018.1
Ю 6 35 км 4/3 1000 м
[Cu med, cong Ci fib]
+28.4 +11.9 36 +29 +33 жарко 1017.9 1017.5
Ю 5 35 км 6/6 1000 м
[Cu med, cong]
+28.3 +12.2 37 +29 +32 жарко 1017.3 1016.9
ЮВ 7 {15} 35 км 9/6 2000 м
[Cb calv Ci sp]
+27.2 +13.2 42 +29 +30 жарко 1016.9 1016.5
Ю 5 {15} 35 км 9/9 2000 м
[Cb calv]
+26.7 +11.2 38 +28 +28 жарко 1016.4 1016.0
ЮЗ 4 {11} 35 км 9/9 1500 м
[Cb calv]
+23.7 +14.7 57 +26 +27 жарко 1016.5 1016.1
СЗ 3 35 км в посл. час ливневой дождь 9/9 1500 м
[Cb calv]
+19.0 +12.7 67 +20 +20 1016.9 1016.5
З 7 {15} 24 км ливневой дождь 9/9 2000 м
[Cb cap]
+16.5 +13.0 80 +15 +15 1018.0 1017.6 +16.5 +28.7 0.2
СЗ 2 26 км гроза без осадков {ливн. дождь} 9/9 2000 м
[Cb cap]
+14.6 +13.0 90 +14 +14 1018.5 1018.1
С 2 30 км в посл. час гроза 9/9 2000 м
[Cb calv]
+15.1 +13.5 90 +15 +15 1018.0 1017.6
ЮЗ 3 29 км {гроза, ливн. дождь} 9/6 2000 м
[Cb calv Ac trans]
+15.9 +14.8 93 +15 +15 1018.3 1017.9
В 2 27 км 3/0
[Ac trans]
+14.9 +13.9 94 +15 +15 1017.8 1017.4
В 2 15 км ясно +14.0 +13.4 96 +13 +13 1017.5 1017.1
ЮЗ 3 20 км {гроза, ливн. дождь} 1/0
[Ac trans]
+12.7 +12.4 98 +11 +11 1017.6 1017.2
В 2 11 км 1/0
[Ac trans]
+12.3 +12.1 99 +11 +11 1017.1 1016.7
В 3 20 км ясно +12.1 +11.9 99 +10 +10 1016.5 1016.1
В 3 20 км ясно +13.0 +12.8 99 +11 +12 1015.9 1015.5
В 2 30 км ясно +14.9 +14.4 97 +15 +15 1015.7 1015.3
ЮВ 4 35 км ясно +17.9 +12.1 69 +18 +19 1015.4 1015.0
ЮВ 5 30 км ясно +20.4 +11.1 55 +22 +25 комфорт 1015.4 1015.0 +12.0 +20.4 0.0 0.2
Ю 5 35 км ясно +22.7 +11.1 48 +25 +29 комфорт 1015.3 1014.9
Ю 5 35 км ясно +25.1 +11.6 43 +27 +32 жарко 1015.0 1014.6
ЮВ 8 35 км ясно +26.5 +8.9 33 +27 +29 жарко 1015.0 1014.6
Ю 8 30 км ясно +27.4 +8.3 30 +27 +30 жарко 1014.7 1014.3
ЮВ 7 35 км ясно +27.9 +10.1 33 +28 +33 жарко 1014.3 1013.9
Ю 7 35 км ясно +27.8 +6.5 26 +27 +31 жарко 1013.9 1013.5
Ю 7 35 км 1/1 1000 м
[Cu hum]
+28.1 +6.8 26 +27 +31 жарко 1013.6 1013.2
З 8-13 {19} 22 км 6/6 1000 м
[Cu med, cong]
+17.4 +13.9 80 +16 +17 1015.1 1014.7
СЗ 5 {19} 30 км 4/1 1000 м
[Cu med, cong Ac und]
+16.8 +13.7 82 +16 +18 1015.4 1015.0
З 5 29 км 9/0
[Ac und]
+16.7 +14.7 88 +16 +17 1016.1 1015.7
Местоположение метеостанции Леба (Польша): широта 54.75 долгота 17.53 высота над уровнем моря 6 м.
В архиве по умолчанию представлена погода в Лебе за последнюю неделю. Архивные данные за месяц целиком и за предыдущие месяцы, начиная с января 2011 года, Вы можете получить, выбрав интересующий диапазон дат из раскрывающегося списка и нажав кнопку "Найти!".
*Определитесь, кто Вы:
Внимание! Время в таблицах - всемирное. Для получения местного времени необходимо прибавить поправку, которая равна 1 ч.
Некоторые строки с данными для отдельных станций могут быть выделены курсивом. Это означает, что фактические данные отсутствуют по различным причинам, а приведенные значения являются расчетными модельными данными для данного пункта наблюдений.
Смотрите также архив погоды в соседних городах и на ближайших метеорологических станциях:
Партнеры нашего сайта:      
Пояснения к столбцам:
  • Ветер - указаны скорость ветра в м/с - средняя за 10 мин, порывы в срок и между сроками (в фигурных скобках) и направление, откуда дует ветер: С - северный,
  • СВ - северо-восточный, В - восточный, ЮВ - юго-восточный, Ю - южный, ЮЗ - юго-западный, З - западный, СЗ - северо-западный.
  • Видимость - горизонтальная дальность видимости в метрах или километрах. При видимости от 1 до 10 км при отсутствии осадков обычно наблюдается дымка, при ухудшении видимости до 1 км и менее - туман. В сухую погоду видимость может ухудшаться дымом, пылью или мглою.
  • Явления - указаны атмосферные явления, наблюдавшиеся в срок или в последний час перед сроком; фигурными скобками обозначены явления, наблюдавшиеся между сроками (за 1-3 часа до срока); квадратными скобками обозначены град или гололедные отложения с указанием их диаметра в мм.
  • Облачность - указаны через наклонную черту общая и нижняя облачность в баллах и высота нижней границы облаков в метрах; квадратными скобками обозначены формы облаков: Ci - перистые, Cs - перисто-слоистые, Cc - перисто-кучевые, Ac - высококучевые, As - высокослоистые, Sc - слоисто-кучевые, Ns - слоисто-дождевые, Cu - кучевые, Cb - кучево-дождевые. Подробнее классификацию облаков см. в Атласе облаков (PDF).
  • T - Температура воздуха - температура, измеренная на высоте 2 м над землей.
  • Td - Температура точки росы - температура, при понижении до которой содержащийся в воздухе водяной пар достигнет насыщения.
  • f - Относительная влажность воздуха - влажноcть воздуха, измеренная на высоте 2 м над землей.
  • Te - Эффективная температура - температура, которую ощущает одетый по сезону человек в тени. Характеристика душности погоды. При расчете учитывается влияние влажности воздуха и скорости ветра на теплоощущения человека.
  • Tes - Эффективная температура на солнце - температура, которую ощущает человек, с поправкой на солнечный нагрев. Характеристика знойности погоды. Зависит от высоты солнца над горизонтом, облачности и скорости ветра. Ночью, в пасмурную погоду, а также при ветре 12 м/с и более поправка равна нулю.
  • P - Атмосферное давление - приведенное к уровню моря атмосферное давление.
  • Po - Атмосферное давление - измеренное на уровне метеостанции атмосферное давление.
  • Tmin - Минимальная температура - минимум температуры воздуха на высоте 2 м над землей.
  • Tmax - Максимальная температура - максимум температуры воздуха на высоте 2 м над землей.
  • R - Количество осадков - Количество выпавших осадков за период времени, мм. При наведении курсора мыши на число - период времени, за который выпало указанное количество осадков.
  • R24 - Количество осадков - Количество выпавших осадков за 24 часа, мм.
  • S - Снежный покров - Высота снежного покрова, см. При наведении курсора мыши на число - состояние снежного покрова и степень покрытия местности в баллах.